Location: Jackson
(42.2460°N, 84.4010°W)
Time: 11:03:16
(UTC-04:00)

Injun/Solrad 3 - Pass Details

Date: 08 February 2026
Orbit: 871 x 985 km, 66.8° (Epoch: 16 March)

Event Time Altitude Azimuth Distance (km) Brightness Sun altitude
Rises 20:08:23 0° 337° (NNW) 3,537 11.2 -23.9°
Reaches altitude 10° 20:13:41 10° 16° (NNE) 2,627 10.1 -24.9°
Enters shadow 20:13:56 10° 19° (NNE) 2,613 10.1 -25.0°
